Weather History for Jefferson City, MO

Change the Weather History Date:

Sunday, October 14, 2012

  Actual Average Record
Temperature  
Mean Temperature 62 °F -  
Max Temperature 71 °F 71 °F 92 °F (1938)
Min Temperature 48 °F 43 °F 26 °F (1937)
Degree Days  
Heating Degree Days 4    
Growing Degree Days 12 (Base 50)    
Moisture  
Dew Point 56 °F    
Average Humidity 75    
Maximum Humidity 94    
Minimum Humidity 42    
Precipitation  
Precipitation 0.44 in - - ()
Sea Level Pressure  
Sea Level Pressure 29.72 in    
Wind  
Wind Speed 10 mph (SSW)    
Max Wind Speed 20 mph    
Max Gust Speed 26 mph    
Visibility 9 miles    
Events Rain    
Averages and records for this station are not official NWS values.
T = Trace of Precipitation, MM = Missing Value Source: NWS Daily Summary

Daily Weather History Graph

Daily Weather History Graph

Search for Another Location

Airport:

Trip Planner

Search our weather history database for the weather conditions in past years. The results will help you decide how hot, cold, wet, or windy it might be!

Date:

Astronomy

Oct. 14, 2012 Rise Set
Actual Time 7:17 AM CDT 6:31 PM CDT
Civil Twilight 6:50 AM CDT 6:57 PM CDT
Nautical Twilight 6:19 AM CDT 7:28 PM CDT
Astronomical Twilight 5:49 AM CDT 7:59 PM CDT
Moon 6:17 AM CDT (10/14) 5:51 PM CDT (10/14)
Length of Visible Light 12h 07m
Length of Day
11h 13m
Waning Crescent, 1% of the Moon is Illuminated
Oct 14
Waning Crescent
Oct 15
New
Oct 21
First Quarter
Oct 29
Full
Nov 6
Last Quarter

Hourly Weather History & Observations

Time (CDT) Temp. Dew Point Humidity Pressure Visibility Wind Dir Wind Speed Gust Speed Precip Events Conditions
12:13 AM 66.2 °F 62.6 °F 88% 29.76 in 5.0 mi SSE 4.6 mph - 0.06 in Rain Rain
12:53 AM 64.9 °F 62.1 °F 90% 29.70 in 6.0 mi South 8.1 mph - 0.17 in Rain Rain
1:24 AM 64.4 °F 62.6 °F 94% 29.73 in 6.0 mi SSE 9.2 mph - 0.08 in Rain Rain
1:53 AM 64.9 °F 61.0 °F 87% 29.70 in 5.0 mi SSE 15.0 mph 20.7 mph 0.17 in Rain Rain
2:42 AM 64.4 °F 60.8 °F 88% 29.65 in 8.0 mi SE 12.7 mph 20.7 mph 0.08 in Rain Light Rain
2:53 AM 64.0 °F 61.0 °F 90% 29.61 in 10.0 mi SE 10.4 mph 18.4 mph 0.09 in Rain Light Rain
3:08 AM 64.4 °F 60.8 °F 88% 29.66 in 10.0 mi SE 9.2 mph - 0.00 in   Mostly Cloudy
3:15 AM 64.4 °F 60.8 °F 88% 29.65 in 10.0 mi SE 6.9 mph - 0.00 in   Mostly Cloudy
3:27 AM 64.4 °F 60.8 °F 88% 29.65 in 10.0 mi SE 8.1 mph - 0.00 in   Mostly Cloudy
3:39 AM 64.4 °F 60.8 °F 88% 29.65 in 10.0 mi SE 9.2 mph - 0.00 in   Overcast
3:53 AM 64.9 °F 61.0 °F 87% 29.61 in 10.0 mi SE 8.1 mph - 0.00 in   Overcast
4:29 AM 64.4 °F 60.8 °F 88% 29.64 in 10.0 mi SSE 10.4 mph - N/A   Overcast
4:53 AM 64.9 °F 61.0 °F 87% 29.60 in 10.0 mi SSE 8.1 mph - N/A   Overcast
5:53 AM 66.0 °F 61.0 °F 84% 29.60 in 10.0 mi South 9.2 mph 21.9 mph N/A   Overcast
6:10 AM 64.4 °F 60.8 °F 88% 29.64 in 10.0 mi South 6.9 mph - N/A   Overcast
6:29 AM 66.2 °F 60.8 °F 83% 29.63 in 10.0 mi South 8.1 mph 17.3 mph N/A   Overcast
6:53 AM 66.0 °F 60.1 °F 81% 29.60 in 10.0 mi South 10.4 mph 19.6 mph N/A   Overcast
7:53 AM 64.9 °F 60.1 °F 84% 29.60 in 10.0 mi South 10.4 mph 18.4 mph N/A   Mostly Cloudy
8:45 AM 66.2 °F 59.0 °F 78% 29.66 in 10.0 mi SW 10.4 mph - N/A   Mostly Cloudy
8:53 AM 66.0 °F 59.0 °F 78% 29.62 in 10.0 mi SSW 11.5 mph 17.3 mph N/A   Mostly Cloudy
9:53 AM 66.9 °F 55.9 °F 68% 29.66 in 10.0 mi SW 13.8 mph 25.3 mph N/A   Mostly Cloudy
10:00 AM 66.2 °F 55.4 °F 68% 29.70 in 10.0 mi SW 16.1 mph 24.2 mph N/A   Mostly Cloudy
10:37 AM 66.2 °F 55.4 °F 68% 29.72 in 10.0 mi SW 17.3 mph 24.2 mph N/A   Overcast
10:53 AM 66.9 °F 55.0 °F 66% 29.68 in 10.0 mi SW 19.6 mph 25.3 mph N/A   Mostly Cloudy
11:53 AM 66.9 °F 55.0 °F 66% 29.71 in 10.0 mi WSW 12.7 mph 20.7 mph N/A   Overcast
12:53 PM 62.1 °F 55.9 °F 80% 29.76 in 6.0 mi West 17.3 mph 26.5 mph 0.01 in Rain Light Rain
1:53 PM 64.9 °F 55.0 °F 70% 29.78 in 10.0 mi West 13.8 mph 21.9 mph 0.00 in   Mostly Cloudy
2:53 PM 66.9 °F 51.1 °F 57% 29.80 in 10.0 mi West 17.3 mph 24.2 mph N/A   Mostly Cloudy
3:53 PM 70.0 °F 48.9 °F 47% 29.81 in 10.0 mi WNW 15.0 mph 21.9 mph N/A   Scattered Clouds
4:53 PM 70.0 °F 46.0 °F 42% 29.82 in 10.0 mi WNW 13.8 mph 25.3 mph N/A   Scattered Clouds
5:53 PM 68.0 °F 45.0 °F 43% 29.85 in 10.0 mi WNW 13.8 mph 20.7 mph N/A   Clear
6:53 PM 64.9 °F 43.0 °F 45% 29.88 in 10.0 mi WNW 10.4 mph - N/A   Clear
7:53 PM 61.0 °F 43.0 °F 52% 29.90 in 10.0 mi WNW 5.8 mph - N/A   Clear
8:53 PM 59.0 °F 43.0 °F 55% 29.92 in 10.0 mi NW 4.6 mph - N/A   Clear
9:53 PM 57.0 °F 44.1 °F 62% 29.94 in 10.0 mi NW 3.5 mph - N/A   Clear
10:53 PM 53.1 °F 45.0 °F 74% 29.96 in 10.0 mi Calm Calm - N/A   Clear
11:53 PM 48.0 °F 43.0 °F 83% 29.96 in 10.0 mi Calm Calm - N/A   Clear